GW5913 Weather Reports


time (UTC)temp
F
wind
direction
speed
knots
gust
knots
rain 1hr
in
rain 24hr
in
rain mn
in
humidity
%
barometer
mb
20260510082841 65 193 3.5 7.8 0.00 0.00 0.00 83 1017.9
20260510082339 64 181 5.2 10.4 0.00 0.00 0.00 83 1017.9
20260510081837 64 200 3.5 10.4 0.00 0.00 0.00 83 1018.0
20260510081334 64 201 6.1 7.8 0.00 0.00 0.00 84 1017.8
20260510080830 62 215 1.7 4.3 0.00 0.00 0.00 84 1017.9
20260510080325 60 194 1.7 2.6 0.00 0.00 0.00 87 1018.0
20260510075822 60 181 2.6 2.6 0.00 0.00 0.00 86 1017.9
20260510075320 60 140 0.9 1.7 0.00 0.00 0.00 86 1018.0
20260510074816 60 309 0.0 1.7 0.00 0.00 0.00 85 1018.1
20260510074314 60 282 0.9 2.6 0.00 0.00 0.00 85 1017.9
20260510073809 60 299 0.0 3.5 0.00 0.00 0.00 85 1017.9
20260510073305 60 195 2.6 5.2 0.00 0.00 0.00 85 1018.0
20260510072801 60 194 2.6 2.6 0.00 0.00 0.00 85 1018.0
20260510072258 60 201 1.7 2.6 0.00 0.00 0.00 85 1017.9
20260510071754 60 210 1.7 2.6 0.00 0.00 0.00 86 1017.7
20260510071251 60 183 1.7 2.6 0.00 0.00 0.00 86 1017.8
20260510070750 60 181 1.7 1.7 0.00 0.00 0.00 86 1018.0
20260510070247 61 189 0.9 2.6 0.00 0.00 0.00 84 1018.1
20260510065746 61 216 1.7 1.7 0.00 0.00 0.00 84 1018.1
20260510065243 60 217 0.0 0.9 0.00 0.00 0.00 85 1018.1
20260510064740 60 142 0.0 0.9 0.00 0.00 0.00 86 1018.2
20260510064238 60 89 0.0 1.7 0.00 0.00 0.00 85 1018.6
20260510063734 60 143 0.0 1.7 0.00 0.00 0.00 85 1018.4
20260510063230 60 121 0.9 1.7 0.00 0.00 0.00 86 1018.7
20260510062727 60 124 0.9 1.7 0.00 0.00 0.00 86 1018.5
20260510062223 60 145 1.7 2.6 0.00 0.00 0.00 86 1018.8
20260510061718 60 186 1.7 3.5 0.00 0.00 0.00 87 1018.6
20260510061216 61 146 2.6 3.5 0.00 0.00 0.00 86 1018.7
20260510060712 61 149 0.9 2.6 0.00 0.00 0.00 85 1018.8
20260510060209 61 50 0.0 1.7 0.00 0.00 0.00 84 1018.8
20260510055705 61 37 0.0 0.9 0.00 0.00 0.00 83 1018.6
20260510055203 61 29 0.0 0.9 0.00 0.00 0.00 85 1018.3
20260510054658 61 147 0.0 0.0 0.00 0.00 0.00 85 1018.3
20260510054154 60 322 0.0 0.9 0.00 0.00 0.00 85 1018.2
20260510053654 60 63 0.0 1.7 0.00 0.00 0.00 87 1018.4
20260510053151 60 173 0.0 1.7 0.00 0.00 0.00 87 1018.1
20260510052646 60 144 0.9 1.7 0.00 0.00 0.00 86 1018.1
20260510052143 60 152 0.0 2.6 0.00 0.00 0.00 86 1017.9
20260510051638 60 3 1.7 1.7 0.00 0.00 0.00 83 1018.1
20260510051135 60 50 0.0 1.7 0.00 0.00 0.00 84 1018.0
20260510050632 60 63 0.0 1.7 0.00 0.00 0.00 82 1018.1
20260510050130 60 37 0.0 1.7 0.00 0.00 0.00 82 1018.0
20260510045626 60 343 0.9 1.7 0.00 0.00 0.00 82 1018.2
20260510045123 60 355 0.0 1.7 0.00 0.00 0.00 84 1018.2
20260510044619 60 337 0.0 1.7 0.00 0.00 0.00 84 1018.0
20260510044117 60 22 0.9 1.7 0.00 0.00 0.00 84 1017.9
20260510043612 60 58 0.0 0.9 0.00 0.00 0.00 84 1017.8
20260510043109 60 350 0.0 2.6 0.00 0.00 0.00 83 1017.8
20260510042607 60 342 0.0 0.9 0.00 0.00 0.00 82 1017.8
20260510042102 60 19 0.0 1.7 0.00 0.00 0.00 82 1017.5
20260510041600 61 140 0.9 1.7 0.00 0.00 0.00 81 1017.9
20260510041057 61 181 1.7 2.6 0.00 0.00 0.00 81 1017.9
20260510040554 61 144 1.7 2.6 0.00 0.00 0.00 80 1017.8
20260510040049 61 150 2.6 2.6 0.00 0.00 0.00 81 1017.7
20260510035546 62 181 0.9 2.6 0.00 0.00 0.00 79 1017.7
20260510035045 64 174 1.7 2.6 0.00 0.00 0.00 73 1017.7
20260510034544 65 316 0.0 0.9 0.00 0.00 0.00 69 1017.6
20260510034041 66 37 0.0 1.7 0.00 0.00 0.00 65 1017.3
20260510033536 65 296 0.0 1.7 0.00 0.00 0.00 66 1017.5
20260510033035 65 18 1.7 1.7 0.00 0.00 0.00 68 1017.1
20260510032531 65 37 0.0 2.6 0.00 0.00 0.00 68 1017.1
20260510032026 65 8 0.9 2.6 0.00 0.00 0.00 70 1016.8
20260510031522 65 214 0.0 1.7 0.00 0.00 0.00 69 1016.7
20260510031018 65 352 0.0 1.7 0.00 0.00 0.00 69 1016.6
20260510030513 65 357 1.7 1.7 0.00 0.00 0.00 70 1016.7
20260510030011 65 293 0.0 1.7 0.00 0.00 0.00 69 1016.6
20260510025508 65 5 0.0 1.7 0.00 0.00 0.00 68 1016.5
20260510025006 65 309 0.0 0.9 0.00 0.00 0.00 69 1016.4
20260510024502 66 306 0.0 0.0 0.00 0.00 0.00 68 1016.6
20260510023958 66 339 0.9 2.6 0.00 0.00 0.00 69 1016.5
20260510023454 66 322 0.0 0.9 0.00 0.00 0.00 66 1016.6
20260510022951 67 342 0.9 1.7 0.00 0.00 0.00 64 1016.3
20260510022450 67 348 0.9 1.7 0.00 0.00 0.00 63 1016.2
20260510021949 67 315 0.9 1.7 0.00 0.00 0.00 64 1015.9
20260510021448 66 315 0.9 1.7 0.00 0.00 0.00 65 1015.8
20260510020945 66 331 0.9 1.7 0.00 0.00 0.00 67 1015.9
20260510020444 66 348 0.9 1.7 0.00 0.00 0.00 66 1015.6
20260510015940 67 322 0.9 1.7 0.00 0.00 0.00 66 1015.7
20260510015436 67 212 0.0 0.9 0.00 0.00 0.00 66 1015.5
20260510014931 68 195 1.7 1.7 0.00 0.00 0.00 64 1015.6
20260510014429 68 193 0.0 1.7 0.00 0.00 0.00 63 1015.4
20260510013926 69 180 0.0 0.9 0.00 0.00 0.00 61 1015.4
20260510013420 69 227 0.9 1.7 0.00 0.00 0.00 60 1015.5
20260510012916 69 210 0.9 1.7 0.00 0.00 0.00 59 1015.2
20260510012411 69 178 1.7 2.6 0.00 0.00 0.00 62 1015.1
20260510011906 70 204 0.0 1.7 0.00 0.00 0.00 64 1015.0
20260510011401 71 200 0.0 0.9 0.00 0.00 0.00 58 1015.1
20260510010858 71 94 1.7 1.7 0.00 0.00 0.00 53 1014.9
20260510010355 71 114 0.9 4.3 0.00 0.00 0.00 60 1015.1
20260510005852 74 139 1.7 4.3 0.00 0.00 0.00 49 1014.8
20260510005348 75 131 2.6 3.5 0.00 0.00 0.00 47 1015.0
20260510004846 75 138 0.9 2.6 0.00 0.00 0.00 49 1014.7
20260510004343 76 95 1.7 2.6 0.00 0.00 0.00 41 1014.7
20260510003841 77 83 0.9 2.6 0.00 0.00 0.00 43 1014.6
20260510003338 77 86 2.6 3.5 0.00 0.00 0.00 40 1014.6
20260510002836 77 77 1.7 2.6 0.00 0.00 0.00 42 1014.7
20260510002334 77 72 2.6 2.6 0.00 0.00 0.00 42 1014.5
20260510001830 78 81 1.7 3.5 0.00 0.00 0.00 40 1014.6
20260510001328 78 66 2.6 4.3 0.00 0.00 0.00 39 1014.6
20260510000824 78 78 2.6 4.3 0.00 0.00 0.00 38 1014.6
20260510000322 79 83 2.6 4.3 0.00 0.00 0.00 37 1014.7
20260509235819 79 81 3.5 3.5 0.00 0.00 0.00 36 1014.5
20260509235315 79 68 1.7 4.3 0.00 0.00 0.00 38 1014.9
20260509234811 79 84 2.6 4.3 0.00 0.00 0.00 36 1014.3
20260509234308 79 63 3.5 4.3 0.00 0.00 0.00 35 1014.7
20260509233806 80 65 3.5 4.3 0.00 0.00 0.00 36 1014.7
20260509233303 80 351 1.7 2.6 0.00 0.00 0.00 34 1014.5
20260509232759 80 86 1.7 2.6 0.00 0.00 0.00 30 1014.8
20260509232257 81 22 0.0 3.5 0.00 0.00 0.00 31 1015.1
20260509231753 82 354 0.9 2.6 0.00 0.00 0.00 29 1014.9
20260509231250 81 72 0.9 3.5 0.00 0.00 0.00 30 1014.8
20260509230748 81 51 0.9 1.7 0.00 0.00 0.00 33 1014.8
20260509230244 81 41 2.6 6.1 0.00 0.00 0.00 35 1014.9
20260509225739 82 20 1.7 3.5 0.00 0.00 0.00 33 1014.7
20260509225236 82 326 1.7 2.6 0.00 0.00 0.00 35 1014.8
20260509224731 82 306 2.6 2.6 0.00 0.00 0.00 28 1014.7
20260509224229 81 80 0.9 3.5 0.00 0.00 0.00 33 1015.0
20260509223725 81 92 1.7 4.3 0.00 0.00 0.00 32 1014.6
20260509223223 81 74 3.5 4.3 0.00 0.00 0.00 30 1015.1
20260509222719 81 341 0.0 2.6 0.00 0.00 0.00 32 1015.1
20260509222215 82 81 3.5 14.8 0.00 0.00 0.00 34 1015.1
20260509221711 81 112 2.6 3.5 0.00 0.00 0.00 29 1015.0
20260509221207 81 339 3.5 4.3 0.00 0.00 0.00 30 1015.1
20260509220703 83 325 1.7 2.6 0.00 0.00 0.00 34 1014.9
20260509220200 81 57 0.9 5.2 0.00 0.00 0.00 30 1014.8
20260509215655 80 37 2.6 5.2 0.00 0.00 0.00 36 1014.8
20260509215152 81 75 6.1 7.8 0.00 0.00 0.00 32 1014.9
20260509214649 81 200 3.5 6.1 0.00 0.00 0.00 32 1015.0
20260509214146 81 53 0.9 5.2 0.00 0.00 0.00 34 1014.9
20260509213643 81 83 3.5 7.0 0.00 0.00 0.00 32 1015.0
20260509213138 81 55 3.5 7.8 0.00 0.00 0.00 33 1015.1
20260509212636 81 184 5.2 7.0 0.00 0.00 0.00 29 1015.0
20260509212133 81 147 3.5 9.6 0.00 0.00 0.00 31 1015.2
20260509211629 82 155 2.6 4.3 0.00 0.00 0.00 29 1015.1
20260509211126 80 58 1.7 4.3 0.00 0.00 0.00 29 1015.3
20260509210623 80 85 2.6 7.0 0.00 0.00 0.00 33 1015.2
20260509210120 82 120 0.9 3.5 0.00 0.00 0.00 29 1015.1
20260509205614 82 3 1.7 4.3 0.00 0.00 0.00 30 1015.3
20260509205109 81 54 3.5 4.3 0.00 0.00 0.00 30 1015.4
20260509204605 81 67 4.3 6.1 0.00 0.00 0.00 27 1015.4
20260509204102 82 334 1.7 3.5 0.00 0.00 0.00 30 1015.6
20260509203558 82 359 0.0 1.7 0.00 0.00 0.00 29 1015.6
20260509203057 81 342 1.7 6.1 0.00 0.00 0.00 32 1015.6
20260509202556 80 59 8.7 9.6 0.00 0.00 0.00 32 1015.6
20260509202052 81 81 5.2 9.6 0.00 0.00 0.00 30 1015.8
20260509201547 81 75 5.2 6.1 0.00 0.00 0.00 35 1015.4
20260509201046 80 132 3.5 7.0 0.00 0.00 0.00 29 1015.7
20260509200544 80 79 7.8 8.7 0.00 0.00 0.00 36 1015.9
20260509200042 80 76 5.2 7.8 0.00 0.00 0.00 30 1015.8
20260509195537 80 80 3.5 7.8 0.00 0.00 0.00 28 1016.0
20260509195037 80 51 1.7 6.1 0.00 0.00 0.00 36 1016.0
20260509194532 81 66 4.3 7.8 0.00 0.00 0.00 30 1016.0
20260509194030 80 71 3.5 6.1 0.00 0.00 0.00 28 1016.0
20260509193530 79 79 1.7 7.0 0.00 0.00 0.00 34 1015.9
20260509193027 80 130 6.1 9.6 0.00 0.00 0.00 28 1015.9
20260509192524 80 71 4.3 9.6 0.00 0.00 0.00 28 1016.0
20260509192019 80 146 2.6 5.2 0.00 0.00 0.00 27 1016.1
20260509191514 80 132 5.2 7.8 0.00 0.00 0.00 28 1016.0
20260509191009 81 93 2.6 4.3 0.00 0.00 0.00 31 1015.9
20260509190507 81 42 3.5 6.1 0.00 0.00 0.00 29 1016.0
20260509190005 80 322 2.6 5.2 0.00 0.00 0.00 30 1016.0
20260509185501 81 51 5.2 5.2 0.00 0.00 0.00 30 1016.1
20260509184958 80 185 2.6 6.1 0.00 0.00 0.00 30 1016.1
20260509184457 79 89 3.5 7.8 0.00 0.00 0.00 31 1016.3
20260509183952 80 29 3.5 6.1 0.00 0.00 0.00 27 1016.2
20260509183447 80 118 4.3 6.1 0.00 0.00 0.00 28 1016.1
20260509182943 81 5 1.7 4.3 0.00 0.00 0.00 34 1016.1
20260509182439 80 113 0.0 1.7 0.00 0.00 0.00 29 1016.3
20260509181937 80 15 2.6 5.2 0.00 0.00 0.00 39 1016.3
20260509181435 80 13 2.6 5.2 0.00 0.00 0.00 39 1016.4
20260509180932 79 105 0.9 2.6 0.00 0.00 0.00 39 1016.3
20260509180427 79 178 3.5 6.1 0.00 0.00 0.00 38 1016.3
20260509175925 79 27 2.6 4.3 0.00 0.00 0.00 40 1016.3
20260509175421 79 252 1.7 4.3 0.00 0.00 0.00 41 1016.2
20260509174917 78 348 1.7 3.5 0.00 0.00 0.00 44 1016.4
20260509174413 78 114 2.6 6.1 0.00 0.00 0.00 48 1016.5
20260509173910 77 140 2.6 5.2 0.00 0.00 0.00 48 1016.4
20260509173409 77 102 3.5 6.1 0.00 0.00 0.00 48 1016.7
20260509172906 78 187 3.5 4.3 0.00 0.00 0.00 48 1016.5
20260509172403 78 178 2.6 7.0 0.00 0.00 0.00 48 1016.5
20260509171859 80 300 0.9 2.6 0.00 0.00 0.00 53 1016.6
20260509171355 78 320 1.7 3.5 0.00 0.00 0.00 55 1016.5
20260509170851 76 183 1.7 7.0 0.00 0.00 0.00 56 1016.6
20260509170347 78 165 1.7 3.5 0.00 0.00 0.00 52 1016.7
20260509165841 77 193 0.0 3.5 0.00 0.00 0.00 52 1016.6
20260509165336 76 219 0.0 3.5 0.00 0.00 0.00 53 1016.7
20260509164833 77 201 2.6 3.5 0.00 0.00 0.00 52 1016.8
20260509164329 76 72 2.6 4.3 0.00 0.00 0.00 57 1016.8
20260509163825 76 50 2.6 4.3 0.00 0.00 0.00 54 1016.9
20260509163322 76 0 2.6 2.6 0.00 0.00 0.00 56 1016.7
20260509162822 76 358 1.7 3.5 0.00 0.00 0.00 60 1016.8
20260509162320 75 351 1.7 2.6 0.00 0.00 0.00 60 1016.8
20260509161817 74 191 1.7 3.5 0.00 0.00 0.00 63 1017.0
20260509161313 75 250 2.6 4.3 0.00 0.00 0.00 67 1017.0
20260509160808 75 338 1.7 3.5 0.00 0.00 0.00 69 1016.9
20260509160305 75 236 1.7 4.3 0.00 0.00 0.00 67 1016.9
20260509155800 74 325 1.7 4.3 0.00 0.00 0.00 68 1016.9
20260509155257 75 249 4.3 4.3 0.00 0.00 0.00 68 1016.9
20260509154753 75 294 0.0 2.6 0.00 0.00 0.00 71 1017.1
20260509154250 74 35 1.7 2.6 0.00 0.00 0.00 72 1016.8
20260509153747 73 250 1.7 4.3 0.00 0.00 0.00 71 1017.0
20260509153243 73 221 2.6 6.1 0.00 0.00 0.00 72 1016.9
20260509152739 73 305 1.7 4.3 0.00 0.00 0.00 73 1016.9
20260509152236 73 274 1.7 3.5 0.00 0.00 0.00 75 1016.7
20260509151733 73 257 2.6 5.2 0.00 0.00 0.00 74 1016.8
20260509151229 72 222 2.6 4.3 0.00 0.00 0.00 77 1016.8
20260509150727 72 253 3.5 5.2 0.00 0.00 0.00 74 1016.8
20260509150225 72 357 0.9 4.3 0.00 0.00 0.00 75 1016.8
20260509145722 71 293 1.7 5.2 0.00 0.00 0.00 77 1017.0
20260509145217 70 272 1.7 6.1 0.00 0.00 0.00 80 1016.8
20260509144714 69 198 1.7 5.2 0.00 0.00 0.00 81 1016.9
20260509144211 69 166 2.6 4.3 0.00 0.00 0.00 82 1016.8
20260509143708 69 174 1.7 2.6 0.00 0.00 0.00 81 1017.0
20260509143205 68 141 2.6 4.3 0.00 0.00 0.00 82 1016.9
20260509142700 67 206 1.7 6.1 0.00 0.00 0.00 84 1016.6
20260509142157 68 186 2.6 4.3 0.00 0.00 0.00 82 1016.6
20260509141653 67 191 2.6 3.5 0.00 0.00 0.00 83 1016.7
20260509141150 67 175 3.5 4.3 0.00 0.00 0.00 83 1016.6
20260509140647 66 201 3.5 5.2 0.00 0.00 0.00 84 1016.7
20260509140145 66 175 1.7 2.6 0.00 0.00 0.00 83 1016.6
20260509135641 67 313 0.0 1.7 0.00 0.00 0.00 84 1016.6
20260509135140 66 186 0.0 2.6 0.00 0.00 0.00 83 1016.6
20260509134636 64 110 0.0 1.7 0.00 0.00 0.00 87 1016.6
20260509134134 63 160 0.0 1.7 0.00 0.00 0.00 89 1016.7
20260509133631 62 217 0.0 0.9 0.00 0.00 0.00 90 1016.4
20260509133128 60 223 0.9 1.7 0.00 0.00 0.00 91 1016.2
20260509132626 60 197 0.0 2.6 0.00 0.00 0.00 93 1016.5
20260509132124 59 193 1.7 2.6 0.00 0.00 0.00 93 1016.4
20260509131620 58 312 0.0 3.5 0.00 0.00 0.00 94 1016.5
20260509131117 58 155 2.6 2.6 0.00 0.00 0.00 95 1016.3
20260509130613 57 188 1.7 2.6 0.00 0.00 0.00 96 1016.4
20260509130109 56 146 0.9 2.6 0.00 0.00 0.00 97 1016.3
20260509125606 56 137 0.9 2.6 0.00 0.00 0.00 98 1016.1
20260509125102 55 161 0.9 2.6 0.00 0.00 0.00 99 1016.3
20260509124559 55 108 0.0 1.7 0.00 0.00 0.00 99 1016.2
20260509124056 54 197 0.9 2.6 0.00 0.00 0.00 99 1016.0
20260509123554 54 200 1.7 1.7 0.00 0.00 0.00 99 1016.1
20260509123051 53 205 0.9 1.7 0.00 0.00 0.00 99 1016.3
20260509122547 53 173 1.7 2.6 0.00 0.00 0.00 99 1016.0
20260509122044 53 116 1.7 2.6 0.00 0.00 0.00 99 1016.0
20260509121540 53 333 0.0 1.7 0.00 0.00 0.00 99 1016.0
20260509121038 52 211 0.0 1.7 0.00 0.00 0.00 99 1015.7
20260509120536 53 186 0.0 1.7 0.00 0.00 0.00 99 1015.8
20260509120034 52 42 0.0 1.7 0.00 0.00 0.00 99 1015.7
20260509115531 51 61 0.0 1.7 0.00 0.00 0.00 99 1015.5
20260509115029 50 12 0.0 1.7 0.00 0.00 0.00 99 1015.7
20260509114527 50 338 1.7 2.6 0.00 0.00 0.00 99 1015.6
20260509114025 50 328 0.0 1.7 0.00 0.00 0.00 99 1015.7
20260509113523 50 15 0.0 2.6 0.00 0.00 0.00 99 1015.6
20260509113021 50 342 0.0 1.7 0.00 0.00 0.00 99 1015.3
20260509112517 50 352 0.0 1.7 0.00 0.00 0.00 99 1015.5
20260509112014 50 310 0.0 1.7 0.00 0.00 0.00 99 1015.4
20260509111511 50 42 0.0 2.6 0.00 0.00 0.00 99 1015.3
20260509111008 50 68 1.7 1.7 0.00 0.00 0.00 99 1015.3
20260509110504 50 191 0.0 1.7 0.00 0.00 0.00 99 1015.4
20260509110002 51 185 0.0 1.7 0.00 0.00 0.00 99 1015.4
20260509105500 51 152 0.9 2.6 0.00 0.00 0.00 99 1015.4
20260509104957 51 195 0.0 1.7 0.00 0.00 0.00 99 1015.1
20260509104454 51 185 0.0 2.6 0.00 0.00 0.00 99 1015.1
20260509103951 51 110 0.0 2.6 0.00 0.00 0.00 99 1015.2
20260509103449 51 149 0.0 1.7 0.00 0.00 0.00 99 1015.0
20260509102947 51 53 0.0 1.7 0.00 0.00 0.00 99 1015.3
20260509102444 51 236 0.0 2.6 0.00 0.00 0.00 99 1015.3
20260509101940 51 189 1.7 2.6 0.00 0.00 0.00 99 1015.1
20260509101436 51 164 0.0 1.7 0.00 0.00 0.00 99 1015.1
20260509100934 51 168 0.0 1.7 0.00 0.00 0.00 99 1015.3
20260509100431 52 157 0.9 1.7 0.00 0.00 0.00 99 1015.0
20260509095927 52 295 0.0 1.7 0.00 0.00 0.00 99 1015.4
20260509095425 52 299 0.0 1.7 0.00 0.00 0.00 99 1015.1
20260509094922 52 24 0.0 0.9 0.00 0.00 0.00 99 1015.0
20260509094418 52 303 0.9 1.7 0.00 0.00 0.00 99 1015.1
20260509093916 52 321 0.0 0.9 0.00 0.00 0.00 99 1015.2
20260509093413 53 2 0.9 1.7 0.00 0.00 0.00 99 1015.1
20260509092912 52 11 0.0 1.7 0.00 0.00 0.00 99 1015.0
20260509092409 52 8 0.0 0.9 0.00 0.00 0.00 99 1015.1
20260509091907 52 313 0.0 1.7 0.00 0.00 0.00 99 1015.1
20260509091403 52 334 0.9 1.7 0.00 0.00 0.00 99 1015.3
20260509090901 53 4 0.0 1.7 0.00 0.00 0.00 99 1015.3
20260509090358 53 44 0.0 1.7 0.00 0.00 0.00 99 1015.3
20260509085856 53 22 0.0 1.7 0.00 0.00 0.00 99 1015.4
20260509085353 53 7 0.9 1.7 0.00 0.00 0.00 99 1015.4
20260509084849 53 315 0.0 0.9 0.00 0.00 0.00 99 1015.4
20260509084346 53 201 0.0 0.9 0.00 0.00 0.00 99 1015.5
20260509083844 54 60 0.0 1.7 0.00 0.00 0.00 99 1015.3
20260509083340 53 72 0.0 1.7 0.00 0.00 0.00 99 1015.5